Tracking 18844 objects as of 21-Nov-2017
HD Live streaming from Space Station
objects crossing your sky now

FENGYUN 1C DEB

Track FENGYUN 1C DEB now!
10-day predictions


NORAD ID: 40684
Int'l Code: 1999-025EWQ
Perigee: 843.1 km
Apogee: 892.8 km
Inclination: 98.9 °
Period: 102.2 minutes
Semi major axis: 7238 km
RCS: Unknown
Launch date: May 10, 1999
Source: People's Republic of China (PRC)
Launch site: Taiyaun Space Center, China (TSC)

Note: This is SATELLITE DEBRIS
aabbcc
Your satellite tracking list
Your tracking list is empty




NASA's NSSDC Master Catalog

Two Line Element Set (TLE):
1 40684U 99025EWQ 17320.96160231 +.00000597 +00000-0 +36449-3 0  9998
2 40684 098.9268 020.2873 0034337 305.5669 054.2302 14.09572354184663
Source of the keplerian elements: AFSPC